Wind_Speed
22 23 24 25 26 27 28 29 30 30 28 26 26 26 24 24 23 23 22 21 19 18 18 16 15 13 12 12 12 13 14 14 14 14 13 14 14 14 13 13 13 13 12
21 22 23 24 25 26 27 28 30 30 30 28 27 26 26 26 26 26 25 24 22 20 19 19 17 16 15 14 13 14 14 15 15 15 14 14 15 15 14 13 14 13 12
19 20 21 22 23 24 25 26 28 30 31 30 28 28 28 27 27 27 27 25 25 23 21 21 19 18 17 16 15 14 14 15 15 16 15 15 15 15 15 14 14 14 13
17 18 19 20 21 22 24 25 26 28 30 31 30 29 29 28 27 27 28 26 26 25 23 22 21 20 19 18 17 16 15 15 16 17 16 16 16 16 16 15 15 14 14
15 15 16 17 18 20 21 24 25 27 29 29 31 30 29 28 27 28 29 28 27 26 25 24 23 22 21 20 19 18 17 17 17 17 17 17 17 17 17 16 16 15 15
13 13 13 14 15 17 19 21 23 25 27 28 30 31 30 29 29 28 29 29 29 28 27 26 25 24 23 22 21 20 19 18 17 18 18 18 18 17 17 17 18 17 16
12 12 12 12 13 15 16 18 20 22 25 27 28 29 30 30 30 29 29 30 30 28 28 28 27 26 25 24 23 22 22 20 19 19 19 19 18 18 18 18 18 19 18
12 11 11 11 12 13 14 16 18 20 22 25 27 28 29 31 31 31 31 30 30 29 29 29 29 28 27 27 26 24 23 22 21 20 20 20 19 19 19 19 19 19 19
12 11 10 10 10 11 12 14 15 17 20 23 26 27 28 31 32 32 31 31 30 30 30 30 30 30 29 28 28 26 25 25 23 22 22 21 21 20 20 19 20 20 20
13 11 9 9 9 9 10 12 14 16 18 21 23 25 26 29 32 32 32 31 31 31 30 31 31 31 31 30 30 29 28 27 26 25 24 23 22 22 21 21 21 20 20
14 12 10 8 8 8 9 10 12 14 16 18 21 23 25 27 29 31 31 30 31 31 31 32 33 32 32 32 32 31 30 30 29 27 26 26 24 23 23 22 22 22 21
15 12 10 9 8 7 7 8 9 11 13 16 18 21 23 25 26 28 30 30 30 31 31 31 33 33 33 32 32 32 32 32 31 30 29 28 27 26 25 25 24 23 23
15 13 11 9 8 7 6 6 8 9 11 13 16 19 20 22 24 26 28 29 30 30 31 31 31 32 33 33 33 32 33 34 33 32 31 30 29 28 27 26 26 25 24
16 15 12 10 8 7 6 6 6 8 10 12 14 16 18 19 22 23 25 27 28 29 30 31 31 32 33 33 32 32 33 34 34 34 33 32 31 30 29 28 27 27 27
16 15 13 11 9 7 6 5 5 6 8 10 12 14 15 17 19 21 23 25 26 28 28 30 31 32 33 34 34 34 34 34 34 35 35 34 33 32 31 30 29 29 28
16 15 14 12 10 8 7 6 4 4 6 8 10 12 14 15 17 19 21 23 25 27 27 29 30 31 33 33 34 34 34 35 35 34 35 36 35 35 34 33 31 31 30
16 16 15 13 11 9 8 7 4 3 4 5 7 9 11 13 15 17 19 22 23 25 26 26 28 30 32 33 33 34 33 34 34 35 35 37 37 36 36 35 34 33 32
16 15 15 13 12 10 9 7 6 3 3 4 6 7 9 11 12 14 17 19 21 22 24 24 26 27 29 30 31 33 33 34 35 36 36 36 37 37 37 37 36 35 34
16 15 14 14 13 11 10 8 6 5 3 4 5 6 8 9 10 12 15 16 18 20 21 22 23 24 26 27 30 31 33 33 34 35 36 36 37 38 38 38 38 37 36
15 15 14 13 13 12 11 10 8 6 4 4 4 5 7 8 10 11 13 15 16 18 19 21 21 23 24 25 27 29 31 32 33 33 34 36 37 39 39 39 39 39 39
15 14 13 13 12 12 11 10 9 8 6 4 4 5 6 8 9 10 12 14 15 17 18 20 20 21 23 24 25 27 29 31 32 32 34 36 37 38 39 40 40 40 40
15 14 13 13 12 12 11 10 10 9 7 6 4 4 5 7 9 10 11 13 14 16 17 19 20 21 22 23 23 24 26 28 29 31 32 33 35 37 39 40 40 40 41
14 14 13 13 13 12 11 10 9 9 8 8 6 5 5 6 7 9 10 11 12 14 16 18 19 20 21 22 23 23 25 26 28 29 30 31 33 34 36 37 39 40 40
14 14 13 13 12 12 11 10 9 9 9 8 7 6 6 6 7 8 9 11 12 13 14 16 18 19 20 21 21 22 23 25 26 28 30 32 33 34 35 36 37 39 40
13 13 13 13 12 12 11 11 10 9 9 9 8 8 8 7 7 8 9 10 12 13 14 15 17 19 19 20 21 22 22 23 24 26 28 30 32 33 34 35 36 37 38
13 13 13 13 13 12 12 11 11 11 10 10 9 9 9 8 8 8 9 10 11 12 14 15 17 18 19 20 21 21 22 23 24 25 27 28 29 31 32 34 35 36 38
Wind_Direction
271 266 262 258 255 252 249 247 244 241 241 241 238 236 233 228 227 225 223 221 220 221 220 219 217 216 214 214 211 208 206 205 205 203 201 200 199 199 197 197 198 198 199
275 269 264 259 255 251 249 246 244 242 241 240 238 235 233 230 228 226 223 222 221 221 219 219 218 216 215 214 212 210 207 207 208 206 205 203 203 204 203 205 204 202 203
280 272 266 262 256 252 248 245 243 242 240 238 237 234 231 228 227 227 224 223 221 220 219 219 220 218 215 214 212 211 210 209 210 207 207 207 208 208 208 208 207 206 208
287 277 269 264 260 256 250 245 243 242 240 238 235 233 232 230 227 226 223 223 221 221 219 220 221 221 218 217 214 214 213 211 211 211 212 212 211 211 211 210 210 211 213
298 286 275 268 262 257 252 247 243 242 241 238 234 232 232 231 228 225 224 222 222 222 221 222 223 221 218 218 217 217 216 215 215 214 214 214 213 213 215 214 213 215 217
304 293 283 274 266 259 254 249 244 242 240 239 234 231 231 230 228 226 224 223 223 223 223 223 222 221 220 219 218 217 217 216 214 215 216 216 215 216 217 218 218 219 221
311 298 290 280 270 262 257 251 246 242 239 236 234 231 231 229 227 226 225 225 224 224 224 224 223 221 221 221 221 220 219 218 216 217 217 217 218 219 221 223 223 222 224
323 309 297 287 276 265 258 252 247 244 240 236 234 232 229 228 226 227 226 226 226 226 226 225 224 223 222 222 221 221 221 220 219 219 217 219 220 220 222 225 226 225 227
334 322 309 296 284 270 260 253 250 246 240 235 232 230 229 227 226 227 226 226 226 227 227 226 225 224 223 221 221 223 223 224 222 221 220 221 223 225 226 228 228 228 231
345 336 322 308 293 279 269 259 250 246 239 233 229 228 229 227 227 226 226 225 226 227 226 226 226 226 225 226 225 225 225 224 224 224 224 225 226 227 228 230 231 233 234
349 342 335 321 306 291 278 264 252 246 238 232 229 227 229 228 228 228 226 226 227 228 227 227 227 228 228 227 227 227 225 224 224 225 226 227 228 230 230 231 233 235 238
354 349 342 334 320 305 288 270 255 245 237 232 229 228 230 230 230 229 228 228 229 229 229 228 228 228 228 226 227 227 226 225 225 226 228 229 230 232 232 233 235 237 240
360 356 348 342 335 322 302 281 260 245 236 233 230 228 228 229 231 230 230 230 231 230 230 229 229 229 230 228 227 227 227 228 228 228 229 230 231 233 234 234 235 238 241
3 0 355 351 342 334 318 299 272 250 239 234 233 230 229 230 232 231 230 230 232 232 230 230 231 231 231 230 229 230 229 230 231 230 230 231 232 233 234 236 237 240 242
4 4 4 2 356 351 340 320 291 260 241 234 233 231 228 229 232 232 230 231 232 231 231 231 232 232 231 230 231 232 232 231 232 233 233 232 233 233 235 237 239 242 244
7 7 7 5 4 0 352 342 315 277 248 237 234 232 230 230 232 232 231 232 233 233 232 232 233 233 232 231 231 232 234 234 234 234 235 234 234 235 237 238 240 242 245
9 9 9 10 7 4 1 357 342 296 258 244 236 233 231 229 230 232 232 232 234 233 233 233 233 233 233 233 233 234 234 235 235 236 236 236 236 237 239 240 241 243 246
9 9 10 10 9 7 4 2 355 334 280 257 243 237 233 232 232 232 231 231 234 233 232 233 234 234 233 233 235 236 236 236 237 238 238 238 239 239 239 240 242 244 245
7 9 11 12 11 11 7 1 354 340 310 277 253 244 239 236 235 234 232 231 232 232 232 234 234 233 234 234 236 238 237 236 238 240 241 241 240 241 242 242 244 244 245
5 6 7 8 10 10 10 8 1 349 329 297 270 255 248 241 238 237 236 234 234 235 235 236 237 236 235 236 237 238 239 239 240 242 244 244 246 245 243 243 244 244 245
1 1 2 1 2 5 7 8 5 1 352 327 299 272 257 247 243 244 239 237 237 238 239 238 239 240 237 239 240 240 241 242 243 244 246 246 247 247 246 246 246 246 247
359 359 358 357 357 358 360 2 3 1 356 350 332 303 277 262 255 253 246 243 240 239 238 239 242 244 242 243 243 243 242 243 243 245 247 247 247 248 248 249 249 250 249
356 357 356 356 356 356 357 358 359 357 354 351 339 322 303 283 270 261 254 250 246 242 242 243 244 246 246 245 245 246 246 246 246 247 247 248 249 250 250 250 250 250 249
353 355 356 355 355 355 353 352 351 351 349 346 341 327 313 298 280 270 261 255 252 250 248 248 247 248 248 247 248 249 249 249 249 248 249 250 251 251 251 252 252 251 250
346 349 350 351 350 349 349 347 344 342 341 338 332 326 316 301 288 274 268 263 260 258 257 257 253 251 252 251 251 252 252 252 252 252 251 251 251 252 253 253 253 252 252
337 340 343 344 343 342 341 340 339 335 332 329 325 321 317 307 298 285 276 271 269 267 264 261 257 254 254 255 254 255 257 256 256 255 255 254 252 251 252 254 254 256 257
Height
5807 5807 5807 5808 5809 5810 5812 5814 5817 5819 5822 5824 5827 5830 5833 5836 5839 5842 5845 5848 5851 5853 5855 5857 5859 5860 5862 5863 5865 5866 5868 5870 5871 5873 5875 5877 5879 5881 5883 5885 5887 5888 5890
5802 5801 5801 5801 5802 5804 5806 5808 5810 5813 5816 5819 5822 5825 5828 5831 5834 5838 5841 5844 5847 5849 5852 5854 5856 5858 5860 5861 5863 5865 5866 5868 5870 5872 5874 5876 5878 5880 5882 5884 5886 5888 5889
5796 5796 5795 5796 5796 5797 5799 5801 5804 5807 5810 5813 5816 5819 5822 5825 5829 5832 5836 5839 5842 5845 5848 5850 5853 5855 5857 5859 5861 5863 5864 5866 5868 5870 5872 5874 5877 5879 5881 5883 5885 5887 5888
5791 5790 5790 5790 5791 5792 5793 5795 5798 5800 5803 5806 5809 5813 5816 5820 5824 5827 5830 5834 5838 5841 5844 5846 5849 5852 5854 5856 5858 5861 5862 5864 5866 5868 5870 5873 5875 5877 5879 5881 5883 5885 5887
5787 5786 5785 5785 5785 5786 5788 5789 5792 5794 5797 5800 5803 5807 5810 5814 5818 5822 5825 5829 5833 5836 5839 5842 5845 5848 5851 5853 5855 5858 5860 5862 5864 5866 5868 5870 5873 5875 5877 5879 5881 5883 5885
5784 5782 5781 5781 5781 5781 5782 5784 5786 5788 5791 5794 5797 5801 5804 5808 5812 5816 5820 5824 5828 5831 5835 5838 5841 5844 5847 5850 5852 5855 5857 5859 5861 5864 5866 5868 5870 5873 5875 5877 5879 5881 5883
5781 5779 5778 5777 5777 5777 5777 5779 5780 5782 5785 5787 5791 5795 5799 5802 5807 5811 5815 5818 5822 5826 5830 5833 5836 5839 5843 5846 5849 5851 5854 5856 5859 5861 5863 5866 5868 5870 5872 5875 5877 5879 5881
5778 5776 5775 5774 5773 5773 5773 5774 5775 5777 5779 5781 5785 5788 5793 5797 5801 5805 5809 5813 5817 5821 5824 5828 5831 5834 5838 5841 5845 5847 5850 5853 5856 5858 5860 5863 5865 5867 5869 5872 5874 5876 5878
5776 5774 5772 5771 5770 5769 5769 5770 5770 5772 5773 5776 5779 5783 5787 5791 5795 5799 5803 5807 5811 5815 5819 5822 5826 5829 5833 5836 5840 5843 5846 5849 5852 5855 5857 5859 5862 5864 5866 5868 5870 5873 5875
5774 5772 5770 5768 5767 5766 5765 5766 5766 5767 5768 5771 5774 5777 5781 5785 5789 5793 5797 5801 5805 5809 5813 5817 5820 5824 5827 5831 5835 5838 5842 5845 5848 5851 5853 5856 5858 5861 5863 5865 5867 5869 5871
5773 5770 5768 5766 5764 5763 5762 5762 5762 5763 5764 5766 5769 5772 5776 5779 5783 5787 5791 5795 5799 5803 5806 5810 5814 5818 5822 5825 5829 5833 5836 5840 5843 5846 5849 5852 5854 5856 5859 5861 5863 5865 5867
5772 5769 5766 5764 5762 5760 5759 5759 5759 5759 5761 5762 5765 5768 5771 5775 5778 5781 5785 5789 5793 5796 5800 5804 5808 5811 5815 5819 5823 5827 5830 5834 5838 5841 5844 5847 5849 5852 5854 5857 5859 5861 5863
5771 5768 5765 5762 5760 5759 5757 5757 5756 5757 5758 5760 5762 5764 5767 5770 5773 5776 5780 5783 5787 5790 5794 5798 5802 5805 5809 5812 5817 5820 5824 5828 5832 5835 5838 5841 5844 5847 5849 5851 5854 5856 5858
5771 5767 5764 5761 5759 5757 5756 5755 5754 5755 5755 5757 5759 5761 5763 5766 5769 5772 5775 5778 5781 5785 5788 5792 5795 5799 5802 5806 5810 5814 5818 5822 5825 5829 5832 5835 5838 5841 5844 5846 5849 5851 5853
5771 5767 5764 5761 5758 5757 5755 5754 5753 5753 5753 5754 5756 5758 5760 5762 5764 5767 5770 5773 5776 5779 5782 5785 5789 5792 5796 5800 5804 5807 5811 5815 5818 5822 5825 5828 5832 5835 5837 5840 5843 5845 5847
5771 5767 5764 5761 5758 5756 5754 5753 5752 5751 5752 5752 5753 5755 5757 5758 5761 5763 5765 5768 5770 5773 5776 5779 5782 5786 5789 5793 5797 5800 5804 5807 5811 5815 5818 5821 5825 5828 5831 5834 5836 5838 5841
5772 5768 5764 5761 5758 5756 5754 5752 5751 5750 5750 5751 5751 5752 5754 5755 5757 5759 5760 5763 5765 5767 5770 5773 5776 5779 5783 5786 5790 5793 5797 5800 5804 5807 5811 5814 5817 5820 5824 5826 5829 5832 5834
5772 5768 5765 5762 5759 5756 5754 5752 5750 5749 5749 5749 5750 5750 5751 5752 5754 5755 5756 5758 5760 5763 5765 5768 5770 5773 5776 5779 5783 5786 5790 5793 5797 5800 5803 5806 5810 5813 5816 5819 5821 5824 5826
5772 5769 5765 5762 5759 5756 5754 5752 5750 5749 5748 5748 5748 5748 5749 5750 5751 5752 5753 5755 5756 5758 5760 5763 5765 5768 5770 5773 5776 5779 5782 5786 5789 5792 5795 5798 5802 5805 5807 5810 5813 5815 5818
5773 5769 5766 5763 5760 5757 5754 5752 5750 5749 5748 5747 5747 5747 5747 5747 5748 5749 5750 5751 5753 5755 5756 5758 5760 5762 5765 5767 5770 5772 5775 5778 5781 5784 5787 5790 5793 5795 5798 5801 5804 5806 5809
5773 5769 5766 5763 5760 5758 5755 5753 5750 5749 5747 5746 5745 5745 5745 5745 5746 5747 5747 5748 5749 5751 5752 5754 5756 5757 5759 5761 5764 5766 5768 5771 5773 5776 5779 5782 5784 5787 5789 5792 5794 5797 5799
5773 5770 5766 5763 5760 5758 5755 5753 5751 5749 5747 5746 5744 5744 5743 5743 5744 5744 5744 5745 5746 5747 5749 5750 5751 5753 5754 5756 5757 5759 5761 5763 5766 5769 5770 5772 5775 5777 5779 5782 5785 5787 5789
5773 5769 5766 5763 5761 5758 5756 5753 5751 5749 5747 5745 5744 5743 5742 5742 5742 5742 5742 5742 5743 5744 5745 5746 5747 5748 5749 5750 5752 5753 5755 5756 5758 5760 5762 5764 5766 5768 5770 5772 5775 5777 5779
5772 5769 5766 5763 5761 5758 5755 5753 5751 5749 5747 5745 5743 5742 5741 5740 5739 5739 5739 5740 5740 5741 5741 5742 5743 5743 5744 5745 5746 5747 5748 5750 5751 5752 5753 5756 5757 5759 5761 5763 5765 5767 5769
5771 5768 5766 5763 5760 5758 5755 5753 5750 5748 5746 5744 5743 5741 5739 5738 5737 5737 5737 5737 5737 5737 5737 5738 5738 5739 5739 5740 5741 5742 5742 5744 5744 5745 5746 5748 5749 5751 5752 5754 5756 5757 5759
5770 5767 5765 5762 5759 5757 5754 5752 5750 5747 5745 5743 5741 5740 5738 5737 5736 5735 5734 5734 5733 5733 5733 5733 5733 5733 5734 5734 5735 5736 5736 5737 5738 5739 5739 5740 5741 5742 5744 5745 5747 5748 5750